Retour au catalogue

STARLINK-34594

ActifCommunicationsVLEO
NORAD 65088·PAYLOAD·🇺🇸 United States

Lancé Aug 4, 2025 depuis Cape Canaveral Space Force Station

Loading…

Prochains Passages (prochaines 24 heures)

TLE

FraisSource: CelesTrak SupGP

Époque: Sep 14, 2026, 14:58 UTC

1 65088C 25167L   26257.62409722 -.00018929  00000+0 -55931-3 0  2575
2 65088  53.1592 228.8468 0001444  86.3312 136.1152 15.34397381    12

Suivez STARLINK-34594 en temps réel avec AllMySat

Download on the App Store